FENGYUN 1C DEB

Satellite information

Favourite Embed

Satellite Type and Status

DEBRISIN ORBIT

Key statistics

Satellite FENGYUN 1C DEB at a glance.

Uptime

9659

Days in orbit

Revolutions

≈ 14.4

Per day

Orbit

SSO

Sun Synchronous Orbit

Inclination

97.0

Latest

Satellite identification and parameters

Extended collection of information and parameters for FENGYUN 1C DEB.

Object identification

Identified? True

Debris? True

Object name: FENGYUN 1C DEB

International designator: 1999-025SH

Object number (NORAD): 30128

Object ID (CCSDS): 30128

Country: PEOPLES REPUBLIC OF CHINA (PRC)

Current information (Y/N): Y

RCS size: SMALL

Orbital parameters

Period: 99.685 minutes

Inclination: 96.9815 deg

SMA: 7121.63 km

Apoapsis: 820.772 km

Periapsis: 666.219 km

RAAN: 300.2206 deg

Eccentricy: 0.01085094

Argument of periapsis: 298.6908 deg

Mean anomaly: 116.4286 deg

Mean motion: 14.44553478 rev/day

Mean motion (dot): 0.00020949 rev/day2

B* drag term: 0.0056331856 1/REarth

Two-line elements (TLE)

Creation date: Oct. 19, 2025, 2:20 a.m.

Reference frame: TEME

Reference center: EARTH

Epoch: Oct. 18, 2025, 5:59 p.m. UTC

TLE line 0: 0 FENGYUN 1C DEB

TLE line 1: 1 30128U 99025SH 25291.74980762 .00020949 00000-0 56332-2 0 9996

TLE line 2: 2 30128 96.9815 300.2206 0108509 298.6908 116.4286 14.44553478965173

Live tracking on map

Real-time ground track for satellite FENGYUN 1C DEB.

In-orbit conjunctions

A list of the most updated potential collisions computed for object FENGYUN 1C DEB.

Target Orbit TCA Probability of collision Miss distance Type
DMSP 5D-2 F13 DEB SSO 2025-08-12 03:04:57 0.0001530807 74.0 (m) DEBRIS
COROT SSO 2025-06-22 17:35:25 0.0001840524 806.0 (m) PAYLOAD
COSMOS 1275 DEB LEO 2024-11-15 11:56:55 0.0001156515 487.0 (m) DEBRIS
COSMOS 2251 DEB LEO 2024-11-10 09:33:10 0.0007041936 246.0 (m) DEBRIS

Associated space launch

Chinese polar orbiting meteorological satellite

FENGYUN 1C DEB was lifted into orbit during the mission ‘Long March 4B | Feng Yun 1C’, on board a Long March 4B space rocket.

The launch took place on May 10, 1999, 1:33 a.m. from Launch Complex 7.

For more information about the launch, click the button.

Launch to space Long March 4B | Feng Yun 1C
Long March 4B | Feng Yun 1C

Agency: N/A

Status: Launch Successful

Launch date: May 10, 1999, 1:33 a.m. UTC

Rocket: Long March 4B

Launch pad: Launch Complex 7

Location: Taiyuan Satellite Launch Center, People's Republic of China

...

Latest news about this satellite

There are no fresh news available about this satellite. Check back as we update our databases every day.


Newsletter sign-up

Weekly statistics, charts and insights to help you stay on top of the space industry.